Change the Weather History Date:

Sunday, May 19, 2013

  Actual Average Record
Temperature  
Mean Temperature 51 °F -  
Max Temperature 60 °F 64 °F 84 °F (2008)
Min Temperature 42 °F 41 °F 28 °F (2003)
Degree Days  
Heating Degree Days 14    
Growing Degree Days 1 (Base 50)    
Moisture  
Dew Point 35 °F    
Average Humidity 53    
Maximum Humidity 66    
Minimum Humidity 39    
Precipitation  
Precipitation 0.00 in - - ()
Sea Level Pressure  
Sea Level Pressure 30.25 in    
Wind  
Wind Speed 10 mph (NNW)    
Max Wind Speed 15 mph    
Max Gust Speed 20 mph    
Visibility 10 miles    
Events      
Averages and records for this station are not official NWS values.
T = Trace of Precipitation, MM = Missing Value Source: NWS Daily Summary

Daily Weather History Graph

Daily Weather History Graph

Search for Another Location

Airport or City:

Trip Planner

Search our weather history database for the weather conditions in past years. The results will help you decide how hot, cold, wet, or windy it might be!

Date:

Astronomy

May. 19, 2013 Rise Set
Actual Time 5:17 AM PDT 8:20 PM PDT
Civil Twilight 4:42 AM PDT 8:55 PM PDT
Nautical Twilight 3:57 AM PDT 9:40 PM PDT
Astronomical Twilight 3:03 AM PDT 10:35 PM PDT
Moon 2:13 PM PDT (5/19) 2:00 AM PDT (5/19)
Length of Visible Light 16h 13m
Length of Day
15h 02m
Waxing Gibbous, 66% of the Moon is Illuminated
May 19
Waxing Gibbous
May 24
Full
May 31
Last Quarter
Jun 8
New
Jun 16
First Quarter

Hourly Weather History & Observations

Time (PDT) Temp. Windchill Dew Point Humidity Pressure Visibility Wind Dir Wind Speed Gust Speed Precip Events Conditions
12:15 AM 48.2 °F - 35.6 °F 62% 30.18 in 10.0 mi NW 12.7 mph - N/A   Overcast
12:35 AM 48.2 °F - 35.6 °F 62% 30.18 in 10.0 mi NNW 12.7 mph - N/A   Overcast
12:55 AM 48.2 °F - 35.6 °F 62% 30.19 in 10.0 mi NNW 11.5 mph - N/A   Overcast
1:15 AM 48.2 °F - 35.6 °F 62% 30.19 in 10.0 mi NNW 12.7 mph - N/A   Overcast
1:35 AM 48.2 °F - 35.6 °F 62% 30.19 in 10.0 mi NNW 13.8 mph - N/A   Overcast
1:55 AM 48.2 °F - 35.6 °F 62% 30.19 in 10.0 mi NNW 10.4 mph - N/A   Overcast
2:15 AM 48.2 °F - 35.6 °F 62% 30.19 in 10.0 mi NNW 11.5 mph - N/A   Overcast
2:35 AM 48.2 °F - 35.6 °F 62% 30.20 in 10.0 mi WNW 12.7 mph - N/A   Overcast
2:55 AM 48.2 °F - 35.6 °F 62% 30.20 in 10.0 mi NW 10.4 mph - N/A   Overcast
3:15 AM 48.2 °F - 35.6 °F 62% 30.20 in 10.0 mi NW 11.5 mph - N/A   Overcast
3:35 AM 48.2 °F - 35.6 °F 62% 30.21 in 10.0 mi NW 12.7 mph - N/A   Overcast
3:55 AM 48.2 °F - 35.6 °F 62% 30.21 in 10.0 mi NW 11.5 mph - N/A   Overcast
4:15 AM 46.4 °F 41.5 °F 35.6 °F 66% 30.22 in 10.0 mi NNW 10.4 mph - N/A   Overcast
4:35 AM 46.4 °F 41.9 °F 35.6 °F 66% 30.22 in 10.0 mi NNW 9.2 mph - N/A   Overcast
5:15 AM 46.4 °F 41.1 °F 33.8 °F 62% 30.23 in 10.0 mi NW 11.5 mph - N/A   Mostly Cloudy
5:35 AM 46.4 °F 41.9 °F 33.8 °F 62% 30.24 in 10.0 mi NNW 9.2 mph - N/A   Mostly Cloudy
5:55 AM 46.4 °F 42.4 °F 33.8 °F 62% 30.24 in 10.0 mi North 8.1 mph - N/A   Overcast
6:15 AM 46.4 °F 42.4 °F 35.6 °F 66% 30.25 in 10.0 mi North 8.1 mph - N/A   Overcast
6:35 AM 46.4 °F 42.4 °F 35.6 °F 66% 30.25 in 10.0 mi North 8.1 mph - N/A   Overcast
6:55 AM 48.2 °F - 35.6 °F 62% 30.25 in 10.0 mi NNW 9.2 mph - N/A   Overcast
7:15 AM 48.2 °F - 35.6 °F 62% 30.26 in 10.0 mi NNW 9.2 mph - N/A   Overcast
7:55 AM 50.0 °F - 35.6 °F 58% 30.26 in 10.0 mi NNW 11.5 mph - N/A   Overcast
8:15 AM 50.0 °F - 35.6 °F 58% 30.27 in 10.0 mi NNW 10.4 mph - N/A   Overcast
8:35 AM 51.8 °F - 35.6 °F 54% 30.26 in 10.0 mi NNW 11.5 mph - N/A   Overcast
8:55 AM 53.6 °F - 35.6 °F 51% 30.27 in 10.0 mi NW 12.7 mph - N/A   Overcast
9:15 AM 51.8 °F - 35.6 °F 54% 30.27 in 10.0 mi NNW 9.2 mph - N/A   Overcast
9:35 AM 53.6 °F - 35.6 °F 51% 30.27 in 10.0 mi NW 13.8 mph - N/A   Overcast
9:55 AM 53.6 °F - 35.6 °F 51% 30.27 in 10.0 mi NNW 15.0 mph 19.6 mph N/A   Overcast
10:15 AM 55.4 °F - 35.6 °F 47% 30.27 in 10.0 mi NNW 13.8 mph - N/A   Overcast
10:35 AM 53.6 °F - 33.8 °F 47% 30.27 in 10.0 mi NNW 15.0 mph 19.6 mph N/A   Overcast
10:55 AM 53.6 °F - 33.8 °F 47% 30.28 in 10.0 mi NNW 10.4 mph - N/A   Overcast
11:15 AM 55.4 °F - 35.6 °F 47% 30.28 in 10.0 mi NW 12.7 mph - N/A   Overcast
11:35 AM 53.6 °F - 35.6 °F 51% 30.28 in 10.0 mi North 8.1 mph - N/A   Overcast
12:15 PM 55.4 °F - 35.6 °F 47% 30.27 in 10.0 mi NNW 6.9 mph - N/A   Overcast
12:35 PM 57.2 °F - 35.6 °F 44% 30.27 in 10.0 mi NW 11.5 mph - N/A   Overcast
1:15 PM 57.2 °F - 35.6 °F 44% 30.26 in 10.0 mi WNW 12.7 mph - N/A   Overcast
1:35 PM 59.0 °F - 37.4 °F 45% 30.26 in 10.0 mi NNW 11.5 mph 18.4 mph N/A   Overcast
1:55 PM 60.8 °F - 35.6 °F 39% 30.26 in 10.0 mi WNW 9.2 mph - N/A   Overcast
2:15 PM 59.0 °F - 33.8 °F 39% 30.26 in 10.0 mi North 8.1 mph - N/A   Overcast
2:35 PM 60.8 °F - 35.6 °F 39% 30.26 in 10.0 mi WNW 13.8 mph 17.3 mph N/A   Overcast
2:55 PM 59.0 °F - 35.6 °F 42% 30.26 in 10.0 mi WNW 9.2 mph - N/A   Overcast
3:15 PM 60.8 °F - 35.6 °F 39% 30.26 in 10.0 mi WNW 11.5 mph - N/A   Overcast
3:35 PM 60.8 °F - 35.6 °F 39% 30.25 in 10.0 mi NW 12.7 mph - N/A   Overcast
3:55 PM 60.8 °F - 35.6 °F 39% 30.25 in 10.0 mi NW 10.4 mph - N/A   Overcast
4:15 PM 60.8 °F - 35.6 °F 39% 30.25 in 10.0 mi North 4.6 mph - N/A   Overcast
4:35 PM 60.8 °F - 35.6 °F 39% 30.25 in 10.0 mi NE 8.1 mph - N/A   Overcast
4:55 PM 60.8 °F - 35.6 °F 39% 30.25 in 10.0 mi NNW 5.8 mph - N/A   Overcast
5:15 PM 60.8 °F - 35.6 °F 39% 30.25 in 10.0 mi North 8.1 mph - N/A   Overcast
5:35 PM 60.8 °F - 35.6 °F 39% 30.25 in 10.0 mi NNE 9.2 mph - N/A   Overcast
5:55 PM 60.8 °F - 35.6 °F 39% 30.25 in 10.0 mi North 6.9 mph - N/A   Overcast
6:15 PM 59.0 °F - 35.6 °F 42% 30.25 in 10.0 mi North 5.8 mph - N/A   Overcast
6:35 PM 59.0 °F - 35.6 °F 42% 30.25 in 10.0 mi North 6.9 mph - N/A   Overcast
6:55 PM 57.2 °F - 37.4 °F 48% 30.25 in 10.0 mi North 9.2 mph - N/A   Overcast
7:15 PM 55.4 °F - 37.4 °F 51% 30.25 in 10.0 mi North 8.1 mph - N/A   Mostly Cloudy
7:35 PM 53.6 °F - 37.4 °F 54% 30.25 in 10.0 mi North 5.8 mph - N/A   Mostly Cloudy
7:55 PM 53.6 °F - 37.4 °F 54% 30.26 in 10.0 mi West 5.8 mph - N/A   Mostly Cloudy
8:15 PM 53.6 °F - 35.6 °F 51% 30.26 in 10.0 mi NNW 4.6 mph - N/A   Partly Cloudy
8:35 PM 53.6 °F - 35.6 °F 51% 30.26 in 10.0 mi NNW 3.5 mph - N/A   Mostly Cloudy
8:55 PM 51.8 °F - 35.6 °F 54% 30.26 in 10.0 mi West 3.5 mph - N/A   Scattered Clouds
9:15 PM 48.2 °F - 33.8 °F 58% 30.27 in 10.0 mi WNW 3.5 mph - N/A   Clear
9:35 PM 46.4 °F 45.2 °F 33.8 °F 62% 30.27 in 10.0 mi West 3.5 mph - N/A   Clear
9:55 PM 46.4 °F 44.3 °F 33.8 °F 62% 30.27 in 10.0 mi SSW 4.6 mph - N/A   Clear
10:15 PM 44.6 °F 41.4 °F 32.0 °F 61% 30.27 in 10.0 mi SSW 5.8 mph - N/A   Clear
10:35 PM 44.6 °F 40.7 °F 32.0 °F 61% 30.27 in 10.0 mi South 6.9 mph - N/A   Clear
10:55 PM 42.8 °F - 30.2 °F 61% 30.27 in 10.0 mi Calm Calm - N/A   Clear
11:15 PM 42.8 °F 41.1 °F 30.2 °F 61% 30.27 in 10.0 mi WSW 3.5 mph - N/A   Clear
11:35 PM 44.6 °F - 30.2 °F 57% 30.28 in 10.0 mi Calm Calm - N/A   Clear
11:55 PM 42.8 °F - 30.2 °F 61% 30.28 in 10.0 mi Calm Calm - N/A   Clear